Location: Domicella
(40.8833°N, 14.5833°E)
Time: 15:00:54
(UTC+00:00)

Cosmos 2297 Rocket - Pass Details

Date: 15 May 2026
Orbit: 838 x 842 km, 71.0° (Epoch: 10 June)

Event Time Altitude Azimuth Distance (km) Brightness Sun altitude
Exits shadow 21:46:19 26° 73° (ENE) 1,594 3.6 -27.8°
Drops below altitude 10° 21:49:32 10° 44° (NE) 2,460 4.9 -28.0°
Sets 21:52:13 0° 34° (NE) 3,399 5.9 -28.2°
